User: anonymous   Login
Location: Unspecified
(0.0000°N, 0.0000°E)
Time: 10:52:32
(UTC+01:00)
Language:

Cosmos 1295 Rocket - Orbit

View from above orbital plane
View from above orbital plane
View from above satellite
View from above satellite

Ground track
Ground track

The orbit data is extracted from the following two-line orbital elements,

1 12682U 81077B   18050.50602504 +.00000086 +00000-0 +69447-4 0  9996
2 12682 082.9183 191.1510 0034090 012.5354 347.6643 13.78546245836674
Epoch (UTC): 19 February 2018 12:08:40
Eccentricity: 0.0034090
inclination: 82.9183°
perigee height: 944 km
apogee height: 994 km
right ascension of ascending node: 191.1510°
argument of perigee: 12.5354°
revolutions per day: 13.78546245
mean anomaly at epoch: 347.6643°
orbit number at epoch: 83667

The dashed part of the orbit path shows where the satellite is in the earth's shadow,  

DLR